[[{"header":{"parameterUnit":"m.s-1","parameterCategory":1,"la1":30.2991,"la2":30.254,"lo1":-89.0895,"lo2":-89.0444,"dy":0.0017,"dx":0.0017,"nx":28,"ny":28,"refTime":"2025-08-30T09:00:00:Z","depth":0,"parameterNumber":2,"parameterNumberName":"U-component_of_WINDS"},"data":[0,0,0,0,0,0,0,0,0,0,0,0,0,0,0,0,0,0,0,0,0,0,0,0,0,0,0,0,0,0,0,0,0,0,0,0,0,0,0,0,0,0,0,0,0,0,0,0,0,0,0,0,0,0,0,0,0,0,-0.4348,-0.4348,0,-0.4345,-0.4345,-0.4345,-0.4383,-0.4384,-0.4385,-0.4386,-0.4379,-0.4378,-0.4377,0,0,0,0,0,0,0,0,0,0,0,0,0,-0.4381,-0.438,-0.4348,-0.4348,-0.4348,-0.4345,-0.4345,-0.4345,-0.4383,-0.4384,-0.4385,-0.4387,-0.4379,-0.4378,-0.4376,0,0,0,0,0,0,0,0,0,0,0,0,0,-0.4371,-0.4379,-0.4348,-0.4366,-0.4368,-0.4345,-0.4345,-0.4345,-0.4383,-0.4384,-0.4386,-0.4387,-0.438,-0.4378,-0.4376,-0.4334,0,0,-0.4371,-0.437,0,0,0,0,0,0,0,0,-0.4371,-0.437,-0.4364,-0.4365,-0.4367,-0.4366,-0.4354,-0.4341,-0.4382,-0.4377,-0.4386,-0.4388,-0.4373,-0.4372,-0.4368,-0.4334,-0.4334,-0.4371,-0.437,-0.4369,-0.4369,0,0,0,0,0,0,0,-0.4372,-0.437,-0.4347,-0.4363,-0.4365,-0.4373,-0.4374,-0.4352,-0.4366,-0.4377,-0.438,-0.438,-0.4374,-0.437,-0.4368,-0.4334,-0.4371,-0.4369,-0.4368,-0.4368,-0.4264,-0.4263,0,0,0,0,0,0,-0.4371,-0.437,-0.4347,-0.4347,-0.4373,-0.4371,-0.4372,-0.4365,-0.4367,-0.4368,-0.4378,-0.4381,-0.4372,-0.437,-0.4368,-0.4318,-0.4369,-0.4367,-0.4366,-0.4266,-0.4264,-0.4262,0,0,0,0,0,0,-0.4371,-0.4368,-0.4347,-0.4359,-0.4357,-0.4369,-0.4361,-0.4364,-0.4359,-0.4367,-0.4369,-0.4371,-0.4373,-0.437,-0.4343,-0.4319,-0.4367,-0.4365,-0.4268,-0.4265,-0.4263,-0.4219,0,0,0,0,0,0,-0.4372,-0.4368,-0.4354,-0.4359,-0.4356,-0.4323,-0.436,-0.4363,-0.4357,-0.4361,-0.4361,-0.4363,-0.4374,-0.4345,-0.4341,-0.4317,-0.4364,-0.427,-0.4267,-0.4264,-0.4223,-0.4215,-0.4209,0,0,0,0,0,-0.4373,-0.4341,-0.4353,-0.435,-0.4338,-0.4321,-0.432,-0.4335,-0.4355,-0.4339,-0.4344,-0.4363,-0.4322,-0.4342,-0.4338,-0.4313,-0.4272,-0.4268,-0.4264,-0.4226,-0.4217,-0.4209,0,0,0,0,0,0,-0.4331,-0.4342,-0.4355,-0.4324,-0.4321,-0.4328,-0.4309,-0.4325,-0.4316,-0.432,-0.4338,-0.4337,-0.4306,-0.4307,-0.4329,-0.4272,-0.43,-0.4295,-0.4273,-0.4264,-0.4257,-0.4257,-0.4362,0,0,0,0,0,-0.4318,-0.4305,-0.4314,-0.4285,-0.4284,-0.4296,-0.429,-0.4301,-0.4299,-0.4298,-0.4301,-0.4297,-0.4284,-0.4274,-0.4262,-0.4223,-0.4223,-0.4204,-0.4197,-0.4192,-0.4187,-0.4165,-0.4156,-0.4249,-0.425,-0.425,0,0,-0.4291,-0.4295,-0.4285,-0.4277,-0.4277,-0.4261,-0.4295,-0.4278,-0.4266,-0.4295,-0.4269,-0.4271,-0.4268,-0.4234,-0.4219,-0.4234,-0.4161,-0.4187,-0.4182,-0.418,-0.416,-0.4151,-0.4144,-0.4247,-0.4247,-0.4248,0,0,-0.4233,-0.4236,-0.4212,-0.4211,-0.4211,-0.422,-0.4214,-0.4218,-0.4221,-0.4196,-0.4217,-0.4202,-0.4179,-0.4175,-0.417,-0.4112,-0.4127,-0.4107,-0.4071,-0.4049,-0.4042,-0.4036,-0.4013,-0.4005,-0.4102,-0.4102,-0.4102,0,-0.4199,-0.4178,-0.4197,-0.4178,-0.4173,-0.42,-0.4175,-0.4173,-0.4168,-0.4163,-0.418,-0.4151,-0.415,-0.4116,-0.4101,-0.4097,-0.4089,-0.4106,-0.4042,-0.4036,-0.403,-0.4009,-0.4,-0.41,-0.41,-0.41,-0.41,0,-0.4135,-0.412,-0.4101,-0.4097,-0.409,-0.4067,-0.4081,-0.4072,-0.4084,-0.409,-0.4063,-0.4064,-0.4052,-0.4045,-0.4057,-0.4012,-0.4021,-0.4039,-0.4068,-0.4018,-0.3999,-0.3991,-0.4096,-0.4097,-0.4098,-0.4098,0,0,-0.405,-0.4058,-0.405,-0.4048,-0.405,-0.4038,-0.4017,-0.4007,-0.3997,-0.3993,-0.3974,-0.3954,-0.3971,-0.3965,-0.3977,-0.3958,-0.391,-0.3979,-0.3979,-0.3965,-0.3859,-0.3844,-0.3834,-0.3921,-0.392,-0.3919,-0.3859,0,-0.3993,-0.3959,-0.3975,-0.3937,-0.3923,-0.3949,-0.393,-0.3928,-0.3934,-0.3921,-0.3926,-0.3911,-0.3936,-0.3932,-0.3915,-0.3919,-0.3889,-0.3924,-0.3902,-0.3901,-0.3901,-0.3824,-0.3809,-0.3752,-0.3851,-0.385,-0.3849,0,-0.3922,-0.3917,-0.3878,-0.3882,-0.3877,-0.386,-0.3851,-0.384,-0.3838,-0.3843,-0.3836,-0.3852,-0.3829,-0.3859,-0.3827,-0.3851,-0.3843,-0.3843,-0.3841,-0.3839,-0.3871,-0.3818,-0.3735,-0.3725,-0.3837,-0.3838,-0.3839,0,-0.3863,-0.3845,-0.382,-0.3818,-0.3822,-0.3809,-0.381,-0.381,-0.3803,-0.3795,-0.379,-0.378,-0.3773,-0.3764,-0.3775,-0.3796,-0.3741,-0.3772,-0.3743,-0.3742,-0.3729,-0.3729,-0.3641,-0.3726,-0.3726,-0.3726,-0.3726,0,-0.3797,-0.3772,-0.3793,-0.3777,-0.3749,-0.3768,-0.3739,-0.3743,-0.3743,-0.3727,-0.3748,-0.3732,-0.3749,-0.3734,-0.3743,-0.3715,-0.3712,-0.3714,-0.3716,-0.3711,-0.3711,-0.3705,-0.3709,-0.3724,-0.3725,-0.3725,-0.3725,0,-0.3725,-0.3738,-0.3712,-0.3719,-0.372,-0.3699,-0.3704,-0.3689,-0.3696,-0.3676,-0.3672,-0.3682,-0.3666,-0.3677,-0.366,-0.3666,-0.3628,-0.3637,-0.3629,-0.3631,-0.3601,-0.3603,-0.3505,-0.3493,-0.3587,-0.3586,-0.3585,0,-0.3681,-0.3663,-0.3668,-0.366,-0.366,-0.3646,-0.3639,-0.3656,-0.3648,-0.3644,-0.3629,-0.3615,-0.3604,-0.3577,-0.3582,-0.3569,-0.3576,-0.3543,-0.3574,-0.357,-0.3574,-0.3574,-0.3572,-0.3536,-0.3535,-0.3534,-0.3533,0,-0.3602,-0.3609,-0.36,-0.3592,-0.3583,-0.3577,-0.3573,-0.3565,-0.3582,-0.3571,-0.3556,-0.3548,-0.3531,-0.3516,-0.3506,-0.3505,-0.3521,-0.3524,-0.3516,-0.351,-0.3506,-0.3506,-0.361,-0.3525,-0.3526,-0.3527,-0.3527,-0.3528,-0.3542,-0.3526,-0.3528,-0.3516,-0.3515,-0.351,-0.3496,-0.3502,-0.349,-0.3479,-0.349,-0.347,-0.3468,-0.3456,-0.3453,-0.3437,-0.345,-0.3439,-0.3436,-0.3433,-0.3428,-0.351,-0.3435,-0.3435,-0.3435,-0.3436,-0.3436,0,-0.3462,-0.3465,-0.3454,-0.3448,-0.3438,-0.3457,-0.3453,-0.3442,-0.3426,-0.3423,-0.3413,-0.3394,-0.338,-0.3384,-0.3371,-0.3358,-0.3364,-0.3353,-0.3354,-0.3353,-0.3418,-0.3425,-0.3348,-0.3348,-0.3348,-0.3348,-0.3348,-0.3348,-0.342,-0.3394,-0.3402,-0.3376,-0.3378,-0.3361,-0.3357,-0.3352,-0.335,-0.3329,-0.3318,-0.3322,-0.3321,-0.3308,-0.3295,-0.3297,-0.329,-0.3276,-0.328,-0.334,-0.3348,-0.3357,-0.3364,-0.3275,-0.3274,-0.3216,-0.3215,-0.3215]},{"header":{"parameterUnit":"m.s-1","parameterCategory":1,"la1":30.2991,"la2":30.254,"lo1":-89.0895,"lo2":-89.0444,"dy":0.0017,"dx":0.0017,"nx":28,"ny":28,"refTime":"2025-08-30T09:00:00:Z","depth":0,"parameterNumber":3,"parameterNumberName":"V-component_of_WINDS"},"data":[0,0,0,0,0,0,0,0,0,0,0,0,0,0,0,0,0,0,0,0,0,0,0,0,0,0,0,0,0,0,0,0,0,0,0,0,0,0,0,0,0,0,0,0,0,0,0,0,0,0,0,0,0,0,0,0,0,0,-1.1586,-1.1588,0,-1.1729,-1.1731,-1.1732,-1.1826,-1.1826,-1.1827,-1.1827,-1.1976,-1.1979,-1.1983,0,0,0,0,0,0,0,0,0,0,0,0,0,-1.1399,-1.1402,-1.1586,-1.1588,-1.159,-1.1729,-1.1731,-1.1733,-1.1825,-1.1826,-1.1827,-1.1828,-1.1975,-1.1979,-1.1983,0,0,0,0,0,0,0,0,0,0,0,0,0,-1.1505,-1.1403,-1.1586,-1.1653,-1.166,-1.1728,-1.1731,-1.1733,-1.1825,-1.1826,-1.1827,-1.1828,-1.1973,-1.1978,-1.1983,-1.1997,0,0,-1.1999,-1.2001,0,0,0,0,0,0,0,0,-1.1499,-1.1511,-1.1641,-1.1648,-1.1657,-1.176,-1.1719,-1.1822,-1.1825,-1.1763,-1.1827,-1.1828,-1.1904,-1.1915,-1.1939,-1.2004,-1.2011,-1.1999,-1.2003,-1.2005,-1.2006,0,0,0,0,0,0,0,-1.1491,-1.1506,-1.1643,-1.1643,-1.1652,-1.1677,-1.1693,-1.1739,-1.1826,-1.1768,-1.1775,-1.1791,-1.1908,-1.1934,-1.1944,-1.2013,-1.1999,-1.2004,-1.2007,-1.2009,-1.2101,-1.2101,0,0,0,0,0,0,-1.1473,-1.1499,-1.1638,-1.1647,-1.1578,-1.168,-1.1698,-1.1726,-1.1826,-1.1842,-1.179,-1.1795,-1.1925,-1.1938,-1.1949,-1.1975,-1.2005,-1.201,-1.2012,-1.2102,-1.2101,-1.21,0,0,0,0,0,0,-1.1468,-1.1484,-1.1632,-1.1575,-1.1596,-1.1682,-1.1713,-1.1729,-1.1755,-1.1843,-1.1859,-1.18,-1.1926,-1.1942,-1.1986,-1.1982,-1.2012,-1.2016,-1.2102,-1.2101,-1.2101,-1.2025,0,0,0,0,0,0,-1.1462,-1.1482,-1.1487,-1.1574,-1.1599,-1.1664,-1.1713,-1.1731,-1.1763,-1.1771,-1.1857,-1.1872,-1.1928,-1.1977,-1.1991,-1.1989,-1.202,-1.2103,-1.2102,-1.2101,-1.2028,-1.2021,-1.2016,0,0,0,0,0,-1.1455,-1.1459,-1.1486,-1.1503,-1.1606,-1.1664,-1.1678,-1.1742,-1.1762,-1.1769,-1.1826,-1.1869,-1.1979,-1.1981,-1.1997,-1.1997,-1.2104,-1.2102,-1.2101,-1.2031,-1.2023,-1.2016,0,0,0,0,0,0,-1.1368,-1.1472,-1.1503,-1.1535,-1.159,-1.168,-1.169,-1.1731,-1.1782,-1.1787,-1.1865,-1.1884,-1.192,-1.1963,-1.1962,-1.2018,-1.2047,-1.2049,-1.1988,-1.1981,-1.1975,-1.1965,-1.2025,0,0,0,0,0,-1.1353,-1.139,-1.1479,-1.1498,-1.1525,-1.1602,-1.163,-1.1675,-1.1735,-1.1759,-1.1819,-1.1877,-1.1926,-1.1956,-1.2005,-1.2035,-1.2057,-1.2043,-1.2036,-1.2031,-1.2032,-1.2055,-1.2051,-1.2096,-1.2096,-1.2096,0,0,-1.1321,-1.1382,-1.1401,-1.1483,-1.1531,-1.157,-1.1621,-1.1659,-1.169,-1.1765,-1.1811,-1.1857,-1.1927,-1.1965,-1.1985,-1.2002,-1.2025,-1.2029,-1.2024,-1.2028,-1.2053,-1.2049,-1.2045,-1.2095,-1.2095,-1.2095,0,0,-1.1284,-1.1332,-1.1356,-1.1403,-1.1476,-1.1528,-1.1533,-1.1618,-1.1652,-1.1698,-1.1757,-1.1795,-1.1876,-1.1925,-1.196,-1.1945,-1.1988,-1.1959,-1.1927,-1.1948,-1.1945,-1.1942,-1.194,-1.1938,-1.1959,-1.1959,-1.1959,0,-1.1235,-1.1295,-1.1363,-1.1399,-1.1435,-1.1505,-1.1531,-1.1574,-1.1659,-1.1683,-1.1701,-1.1806,-1.1858,-1.191,-1.1907,-1.1932,-1.1944,-1.195,-1.194,-1.1938,-1.1936,-1.1935,-1.1934,-1.1955,-1.1956,-1.1956,-1.1956,0,-1.1234,-1.1275,-1.1285,-1.1366,-1.1403,-1.1433,-1.1508,-1.1538,-1.158,-1.1631,-1.168,-1.1745,-1.1811,-1.1826,-1.1867,-1.1885,-1.1894,-1.1924,-1.1956,-1.1927,-1.1927,-1.1927,-1.195,-1.1951,-1.1952,-1.1953,0,0,-1.1144,-1.1264,-1.1267,-1.1306,-1.1393,-1.1427,-1.1462,-1.1526,-1.1551,-1.1608,-1.1642,-1.171,-1.174,-1.178,-1.1828,-1.1846,-1.1835,-1.1876,-1.1879,-1.1868,-1.1863,-1.184,-1.1838,-1.1863,-1.1863,-1.1864,-1.1858,0,-1.1122,-1.1188,-1.1252,-1.1296,-1.1336,-1.1406,-1.1437,-1.1495,-1.1544,-1.1588,-1.1643,-1.1691,-1.1725,-1.175,-1.1772,-1.1831,-1.1835,-1.1832,-1.1898,-1.1899,-1.1879,-1.1838,-1.1814,-1.1805,-1.1858,-1.1858,-1.1858,0,-1.1104,-1.1158,-1.1206,-1.1293,-1.1312,-1.1339,-1.1405,-1.1444,-1.1513,-1.1548,-1.1594,-1.1645,-1.1689,-1.1715,-1.1778,-1.1775,-1.1806,-1.1839,-1.184,-1.185,-1.1877,-1.1849,-1.1803,-1.1802,-1.1858,-1.1858,-1.1858,0,-1.1037,-1.1122,-1.1164,-1.1194,-1.1295,-1.1313,-1.1356,-1.1425,-1.1461,-1.1519,-1.1543,-1.1605,-1.1639,-1.1687,-1.1755,-1.1767,-1.1812,-1.1843,-1.1845,-1.1843,-1.1852,-1.1851,-1.1813,-1.1868,-1.1868,-1.1868,-1.1868,0,-1.1006,-1.1034,-1.1135,-1.116,-1.1195,-1.1269,-1.1301,-1.1351,-1.1412,-1.145,-1.1514,-1.1548,-1.1635,-1.1681,-1.1734,-1.178,-1.1794,-1.1826,-1.184,-1.1821,-1.1818,-1.1843,-1.1847,-1.1868,-1.1868,-1.1868,-1.1868,0,-1.0937,-1.1006,-1.1056,-1.1148,-1.1172,-1.1193,-1.1273,-1.1302,-1.1356,-1.1403,-1.1419,-1.1504,-1.1561,-1.1634,-1.1714,-1.175,-1.1791,-1.1812,-1.1768,-1.1777,-1.1775,-1.1775,-1.1754,-1.1756,-1.1807,-1.1807,-1.1806,0,-1.0914,-1.0937,-1.1032,-1.1062,-1.1103,-1.115,-1.1187,-1.1262,-1.1299,-1.138,-1.14,-1.1462,-1.1516,-1.1606,-1.1676,-1.1739,-1.1762,-1.1751,-1.1772,-1.1754,-1.1766,-1.1764,-1.1768,-1.1745,-1.1744,-1.1744,-1.1743,0,-1.0866,-1.09,-1.095,-1.1014,-1.1056,-1.111,-1.1167,-1.1188,-1.1275,-1.1313,-1.1373,-1.1415,-1.1498,-1.1561,-1.1633,-1.168,-1.1727,-1.1736,-1.174,-1.1722,-1.1697,-1.1713,-1.1755,-1.1736,-1.1737,-1.1737,-1.1738,-1.1738,-1.0821,-1.0847,-1.0918,-1.0973,-1.1024,-1.1076,-1.1109,-1.1167,-1.1218,-1.1292,-1.1333,-1.1393,-1.1464,-1.1567,-1.1612,-1.1661,-1.1678,-1.1683,-1.1685,-1.1686,-1.1681,-1.1687,-1.1674,-1.1674,-1.1675,-1.1675,-1.1675,0,-1.0779,-1.0829,-1.0879,-1.0957,-1.1002,-1.1041,-1.1107,-1.1142,-1.1193,-1.1256,-1.1308,-1.1379,-1.1441,-1.1516,-1.1584,-1.1609,-1.1632,-1.1624,-1.1624,-1.1635,-1.166,-1.1651,-1.1604,-1.1604,-1.1604,-1.1604,-1.1604,-1.1604,-1.0762,-1.0808,-1.0851,-1.0924,-1.0974,-1.1033,-1.1067,-1.1117,-1.1168,-1.1243,-1.1295,-1.1344,-1.1413,-1.1486,-1.1546,-1.1567,-1.159,-1.1576,-1.1603,-1.1626,-1.1632,-1.1638,-1.163,-1.1579,-1.1579,-1.1574,-1.1574,-1.1574]}]]